{"data":{"norad_id":66759,"epoch":"2026-09-20T04:21:16.822944Z","epoch_age_seconds":145147,"freshness":"FRESH","line1":"1 66759U 25276CX  26263.18144471  .00003805  00000+0  17013-3 0  9994","line2":"2 66759  97.4086 335.5002 0001224  41.9610 318.1719 15.21919468 44887","mean_motion":15.21919468,"eccentricity":0.0001224,"inclination_deg":97.4086,"raan_deg":335.5002,"arg_perigee_deg":41.961,"mean_anomaly_deg":318.1719,"bstar":0.00017013,"rev_number":4488,"period_min":94.617358557897,"perigee_km":499.20938789998,"apogee_km":500.89316839047,"semimajor_km":6878.1882781452,"source":"CELESTRAK","updated_at":"2026-09-21T09:00:16.182252Z"}}